IPG5 KFLL-TIST

Flight info

Callsign IPG5
Flight time N/A
Altitude 35000
Route SNAPR2 SUMAC Y421 HAGIT Y290 JETSS
Aircraft B752/M-SDE2E3FGHIJ3J4J7RWXY/LB1

Departure

Time 2026-05-04 01:36
Airport Fort Lauderdale Hollywood International Airport (KFLL)

Arrival

Time N/A
Airport Cyril E. King Airport (TIST)
Time Latitude Longitude Altitude Speed Heading
2026-05-04 01:06 26.07339 -80.14765 14 ft 0 kts 95°
2026-05-04 01:19 26.07339 -80.14771 14 ft 2 kts 96°
2026-05-04 01:19 26.07340 -80.14782 14 ft 2 kts 95°
2026-05-04 01:19 26.07338 -80.14799 13 ft 2 kts 65°
2026-05-04 01:19 26.07330 -80.14812 14 ft 2 kts 44°
2026-05-04 01:20 26.07317 -80.14822 14 ft 2 kts 21°
2026-05-04 01:20 26.07303 -80.14825 13 ft 2 kts 359°
2026-05-04 01:20 26.07292 -80.14823 13 ft 0 kts 342°
2026-05-04 01:20 26.07286 -80.14821 13 ft 0 kts 340°
2026-05-04 01:22 26.07295 -80.14825 13 ft 3 kts 340°
2026-05-04 01:22 26.07312 -80.14831 13 ft 1 kts 340°
2026-05-04 01:23 26.07322 -80.14835 13 ft 1 kts 340°
2026-05-04 01:23 26.07338 -80.14842 14 ft 6 kts 340°
2026-05-04 01:23 26.07365 -80.14848 14 ft 4 kts 357°
2026-05-04 01:23 26.07407 -80.14835 13 ft 6 kts 26°
2026-05-04 01:24 26.07434 -80.14817 13 ft 4 kts 38°
2026-05-04 01:24 26.07454 -80.14797 13 ft 0 kts 45°
2026-05-04 01:25 26.07457 -80.14794 13 ft 0 kts 45°
2026-05-04 01:26 26.07459 -80.14792 13 ft 0 kts 45°
2026-05-04 01:26 26.07459 -80.14791 13 ft 0 kts 45°
2026-05-04 01:27 26.07461 -80.14789 13 ft 2 kts 45°
2026-05-04 01:27 26.07509 -80.14763 14 ft 11 kts 352°
2026-05-04 01:27 26.07558 -80.14843 13 ft 16 kts 279°
2026-05-04 01:28 26.07562 -80.14992 14 ft 20 kts 270°
2026-05-04 01:28 26.07562 -80.15144 13 ft 18 kts 269°
2026-05-04 01:28 26.07560 -80.15285 14 ft 17 kts 270°
2026-05-04 01:28 26.07561 -80.15417 13 ft 16 kts 271°
2026-05-04 01:29 26.07562 -80.15537 14 ft 14 kts 270°
2026-05-04 01:29 26.07562 -80.15647 14 ft 13 kts 270°
2026-05-04 01:29 26.07563 -80.15748 14 ft 12 kts 271°
2026-05-04 01:29 26.07565 -80.15839 13 ft 11 kts 270°
2026-05-04 01:30 26.07565 -80.15942 13 ft 13 kts 270°
2026-05-04 01:30 26.07564 -80.16047 14 ft 12 kts 270°
2026-05-04 01:30 26.07564 -80.16140 14 ft 11 kts 270°
2026-05-04 01:30 26.07563 -80.16225 13 ft 10 kts 270°
2026-05-04 01:31 26.07562 -80.16335 14 ft 18 kts 269°
2026-05-04 01:31 26.07560 -80.16464 14 ft 16 kts 270°
2026-05-04 01:31 26.07563 -80.16560 13 ft 6 kts 272°
2026-05-04 01:31 26.07568 -80.16608 14 ft 6 kts 287°
2026-05-04 01:32 26.07587 -80.16633 14 ft 0 kts 339°
2026-05-04 01:32 26.07588 -80.16633 14 ft 0 kts 339°
2026-05-04 01:33 26.07592 -80.16634 14 ft 2 kts 341°
2026-05-04 01:34 26.07616 -80.16640 14 ft 4 kts 350°
2026-05-04 01:34 26.07652 -80.16645 14 ft 5 kts 355°
2026-05-04 01:34 26.07682 -80.16634 14 ft 4 kts 47°
2026-05-04 01:34 26.07691 -80.16612 13 ft 0 kts 80°
2026-05-04 01:35 26.07694 -80.16581 14 ft 15 kts 86°
2026-05-04 01:35 26.07695 -80.16391 14 ft 62 kts 91°
2026-05-04 01:36 26.07689 -80.15630 14 ft 133 kts 90°
2026-05-04 01:36 26.07689 -80.14394 197 ft 178 kts 91°
2026-05-04 01:36 26.07723 -80.13039 1227 ft 170 kts 91°
2026-05-04 01:36 26.07756 -80.11820 2156 ft 169 kts 95°
2026-05-04 01:37 26.07750 -80.10442 2783 ft 189 kts 94°
2026-05-04 01:37 26.07759 -80.08926 3488 ft 207 kts 93°
2026-05-04 01:37 26.07770 -80.07238 4145 ft 233 kts 93°
2026-05-04 01:37 26.07789 -80.05444 5296 ft 234 kts 92°
2026-05-04 01:38 26.07807 -80.03666 6319 ft 242 kts 93°
2026-05-04 01:38 26.07822 -80.01736 7082 ft 262 kts 92°
2026-05-04 01:38 26.07824 -79.99644 7873 ft 281 kts 94°
2026-05-04 01:38 26.07800 -79.97420 8783 ft 295 kts 94°
2026-05-04 01:39 26.07779 -79.95154 9873 ft 299 kts 94°
2026-05-04 01:39 26.07755 -79.92808 10855 ft 308 kts 93°
2026-05-04 01:39 26.07728 -79.90387 11606 ft 325 kts 92°
2026-05-04 01:39 26.07701 -79.87807 12204 ft 347 kts 92°
2026-05-04 01:40 26.07671 -79.85019 12841 ft 369 kts 92°
2026-05-04 01:40 26.07399 -79.82099 13415 ft 390 kts 104°
2026-05-04 01:40 26.06757 -79.79112 14166 ft 406 kts 104°
2026-05-04 01:40 26.06115 -79.76063 15290 ft 412 kts 104°
2026-05-04 01:41 26.05441 -79.72920 15651 ft 433 kts 104°
2026-05-04 01:41 26.04731 -79.69607 16266 ft 440 kts 104°
2026-05-04 01:41 26.04043 -79.66406 17924 ft 428 kts 104°
2026-05-04 01:41 26.03315 -79.63126 18479 ft 445 kts 105°
2026-05-04 01:42 26.02524 -79.59772 18477 ft 447 kts 105°
2026-05-04 01:42 26.01750 -79.56472 18466 ft 434 kts 105°
2026-05-04 01:42 26.00996 -79.53263 18466 ft 430 kts 105°
2026-05-04 01:42 26.00230 -79.50005 18812 ft 444 kts 105°
2026-05-04 01:43 25.99450 -79.46687 19898 ft 444 kts 105°
2026-05-04 01:43 25.98665 -79.43361 20527 ft 455 kts 105°
2026-05-04 01:43 25.97861 -79.39957 21348 ft 460 kts 106°
2026-05-04 01:43 25.96818 -79.36561 22074 ft 465 kts 112°
2026-05-04 01:44 25.95653 -79.33179 22729 ft 472 kts 112°
2026-05-04 01:44 25.94476 -79.29761 23445 ft 479 kts 113°
2026-05-04 01:44 25.93267 -79.26269 24152 ft 484 kts 113°
2026-05-04 01:44 25.92049 -79.22765 24820 ft 490 kts 113°
2026-05-04 01:45 25.90822 -79.19237 25501 ft 495 kts 113°
2026-05-04 01:45 25.89579 -79.15672 26139 ft 501 kts 113°
2026-05-04 01:45 25.87024 -79.08355 27381 ft 511 kts 113°
2026-05-04 01:46 25.85739 -79.04683 27906 ft 518 kts 113°
2026-05-04 01:46 25.84433 -79.00952 28503 ft 522 kts 113°
2026-05-04 01:46 25.83094 -78.97133 29076 ft 527 kts 113°
2026-05-04 01:46 25.81771 -78.93365 29600 ft 531 kts 113°
2026-05-04 01:47 25.80436 -78.89559 30305 ft 530 kts 113°
2026-05-04 01:47 25.79080 -78.85699 31043 ft 528 kts 113°
2026-05-04 01:47 25.77758 -78.81941 31852 ft 522 kts 113°
2026-05-04 01:47 25.76444 -78.78207 32420 ft 521 kts 114°
2026-05-04 01:48 25.75105 -78.74436 32957 ft 518 kts 116°
2026-05-04 01:48 25.73505 -78.70915 33487 ft 512 kts 124°
2026-05-04 01:48 25.71539 -78.67561 33872 ft 511 kts 127°
2026-05-04 01:48 25.69548 -78.64258 34346 ft 510 kts 127°
2026-05-04 01:49 25.67578 -78.61008 34727 ft 510 kts 127°
2026-05-04 01:49 25.65597 -78.57758 34996 ft 505 kts 127°
2026-05-04 01:49 25.61650 -78.51311 34996 ft 504 kts 127°
2026-05-04 01:50 25.57995 -78.44622 35013 ft 511 kts 115°
2026-05-04 01:50 25.55772 -78.37089 35005 ft 515 kts 108°
2026-05-04 01:51 25.53796 -78.29507 34995 ft 513 kts 108°
2026-05-04 01:51 25.51838 -78.21916 35001 ft 513 kts 108°
2026-05-04 01:52 25.49875 -78.14294 35002 ft 513 kts 107°
2026-05-04 01:52 25.47920 -78.06705 35005 ft 513 kts 107°
2026-05-04 01:53 25.45960 -77.99114 35004 ft 513 kts 107°
2026-05-04 01:53 25.43995 -77.91518 35001 ft 512 kts 108°
2026-05-04 01:54 25.42014 -77.83878 35002 ft 513 kts 108°
2026-05-04 01:54 25.40045 -77.76301 34996 ft 512 kts 107°
2026-05-04 01:55 25.38078 -77.68749 34993 ft 512 kts 107°
2026-05-04 01:55 25.36098 -77.61166 34996 ft 512 kts 108°
2026-05-04 01:56 25.34131 -77.53649 35003 ft 510 kts 107°
2026-05-04 01:56 25.32151 -77.46101 35008 ft 510 kts 107°
2026-05-04 01:57 25.30158 -77.38574 35007 ft 510 kts 110°
2026-05-04 01:57 25.27074 -77.31587 35007 ft 504 kts 125°
2026-05-04 01:58 25.23339 -77.25030 35002 ft 504 kts 125°
2026-05-04 01:58 25.19552 -77.18478 34997 ft 505 kts 126°
2026-05-04 01:59 25.15781 -77.11999 35005 ft 504 kts 126°
2026-05-04 01:59 25.11962 -77.05460 35000 ft 504 kts 126°
2026-05-04 02:00 25.08166 -76.98977 35008 ft 504 kts 126°
2026-05-04 02:00 25.04368 -76.92499 35005 ft 503 kts 125°
2026-05-04 02:01 25.00546 -76.85989 35008 ft 503 kts 125°
2026-05-04 02:01 24.96742 -76.79520 35013 ft 501 kts 125°
2026-05-04 02:02 24.92941 -76.73064 35015 ft 501 kts 125°
2026-05-04 02:02 24.89106 -76.66559 35013 ft 501 kts 125°
2026-05-04 02:03 24.85320 -76.60145 35018 ft 501 kts 125°
2026-05-04 02:03 24.81520 -76.53716 35021 ft 501 kts 125°
2026-05-04 02:04 24.77698 -76.47260 35022 ft 501 kts 125°
2026-05-04 02:04 24.73889 -76.40834 35025 ft 501 kts 125°
2026-05-04 02:05 24.70075 -76.34409 35028 ft 500 kts 125°
2026-05-04 02:05 24.66260 -76.27990 35021 ft 498 kts 125°
2026-05-04 02:06 24.62464 -76.21609 35026 ft 499 kts 125°
2026-05-04 02:06 24.58683 -76.15264 35023 ft 499 kts 125°
2026-05-04 02:07 24.54984 -76.08782 35025 ft 499 kts 123°
2026-05-04 02:07 24.51356 -76.02286 35027 ft 499 kts 123°
2026-05-04 02:08 24.47724 -75.95797 35027 ft 499 kts 123°
2026-05-04 02:08 24.44077 -75.89292 35029 ft 498 kts 123°
2026-05-04 02:09 24.40444 -75.82820 35032 ft 498 kts 123°
2026-05-04 02:09 24.36818 -75.76370 35030 ft 497 kts 123°
2026-05-04 02:10 24.33193 -75.69930 35033 ft 497 kts 123°
2026-05-04 02:10 24.29551 -75.63470 35030 ft 497 kts 123°
2026-05-04 02:11 24.25903 -75.57005 35031 ft 497 kts 123°
2026-05-04 02:11 24.22273 -75.50581 35031 ft 496 kts 123°
2026-05-04 02:12 24.18635 -75.44153 35034 ft 496 kts 123°
2026-05-04 02:12 24.14986 -75.37712 35033 ft 497 kts 123°
2026-05-04 02:13 24.11354 -75.31310 35023 ft 496 kts 123°
2026-05-04 02:13 24.07693 -75.24867 35027 ft 497 kts 123°
2026-05-04 02:14 24.04047 -75.18457 35026 ft 496 kts 123°
2026-05-04 02:14 24.00413 -75.12077 35029 ft 495 kts 123°
2026-05-04 02:15 23.96765 -75.05680 35028 ft 495 kts 123°
2026-05-04 02:15 23.95545 -75.03544 35027 ft 495 kts 123°